Time,TemperatureF,DewpointF,PressureIn,WindDirection,WindDirectionDegrees,WindSpeedMPH,WindSpeedGustMPH,Humidity,HourlyPrecipIn,Conditions,Clouds,dailyrainin,SolarRadiationWatts/m^2,SoftwareType,DateUTC
2013-03-30 00:05:00,42.2,30.9,30.09,WNW,289,0.0,1.0,64,0.00,,,0.00,0,Wunderground v.1.15,2013-03-30 04:05:00,
2013-03-30 00:14:00,41.8,30.9,30.09,West,277,0.0,0.0,65,0.00,,,0.00,0,Wunderground v.1.15,2013-03-30 04:14:00,
2013-03-30 00:19:00,41.5,31.0,30.09,West,281,0.0,0.0,66,0.00,,,0.00,0,Wunderground v.1.15,2013-03-30 04:19:00,
2013-03-30 00:29:00,41.0,30.9,30.09,North,355,0.0,0.0,67,0.00,,,0.00,0,Wunderground v.1.15,2013-03-30 04:29:00,
2013-03-30 00:34:00,40.8,31.1,30.09,North,350,0.0,1.0,68,0.00,,,0.00,0,Wunderground v.1.15,2013-03-30 04:34:00,
2013-03-30 00:39:00,40.6,30.9,30.09,NNW,338,0.0,0.0,68,0.00,,,0.00,0,Wunderground v.1.15,2013-03-30 04:39:00,
2013-03-30 00:49:00,40.2,30.8,30.09,NNW,336,0.0,0.0,69,0.00,,,0.00,0,Wunderground v.1.15,2013-03-30 04:49:00,
2013-03-30 00:59:00,39.8,30.5,30.09,WNW,287,0.0,0.0,69,0.00,,,0.00,0,Wunderground v.1.15,2013-03-30 04:59:00,
2013-03-30 01:04:00,39.6,30.6,30.09,WNW,298,0.0,0.0,70,0.00,,,0.00,0,Wunderground v.1.15,2013-03-30 05:04:00,
2013-03-30 01:14:00,39.4,30.4,30.09,NW,325,0.0,3.0,70,0.00,,,0.00,0,Wunderground v.1.15,2013-03-30 05:14:00,
2013-03-30 01:19:00,39.3,30.3,30.09,West,275,1.0,2.0,70,0.00,,,0.00,0,Wunderground v.1.15,2013-03-30 05:19:00,
2013-03-30 01:24:00,39.3,30.3,30.09,West,277,1.0,2.0,70,0.00,,,0.00,0,Wunderground v.1.15,2013-03-30 05:24:00,
2013-03-30 01:29:00,39.2,30.2,30.09,West,266,1.0,1.0,70,0.00,,,0.00,0,Wunderground v.1.15,2013-03-30 05:29:00,
2013-03-30 01:39:00,39.1,30.1,30.09,WNW,300,1.0,1.0,70,0.00,,,0.00,0,Wunderground v.1.15,2013-03-30 05:39:00,
2013-03-30 01:49:00,38.9,29.9,30.09,WNW,300,0.0,0.0,70,0.00,,,0.00,0,Wunderground v.1.15,2013-03-30 05:49:00,
2013-03-30 01:55:00,38.8,30.2,30.09,WNW,300,0.0,0.0,71,0.00,,,0.00,0,Wunderground v.1.15,2013-03-30 05:55:00,
2013-03-30 02:04:00,38.7,30.1,30.09,NW,324,0.0,1.0,71,0.00,,,0.00,0,Wunderground v.1.15,2013-03-30 06:04:00,
2013-03-30 02:10:00,38.6,30.4,30.09,WNW,302,1.0,1.0,72,0.00,,,0.00,0,Wunderground v.1.15,2013-03-30 06:10:00,
2013-03-30 02:19:00,38.6,30.4,30.09,West,281,1.0,1.0,72,0.00,,,0.00,0,Wunderground v.1.15,2013-03-30 06:19:00,
2013-03-30 02:29:00,38.7,30.4,30.09,WNW,302,1.0,3.0,72,0.00,,,0.00,0,Wunderground v.1.15,2013-03-30 06:29:00,
2013-03-30 02:34:00,38.7,30.4,30.09,WNW,295,1.0,3.0,72,0.00,,,0.00,0,Wunderground v.1.15,2013-03-30 06:34:00,
2013-03-30 02:44:00,38.6,30.4,30.09,NW,323,1.0,1.0,72,0.00,,,0.00,0,Wunderground v.1.15,2013-03-30 06:44:00,
2013-03-30 02:54:00,38.4,30.2,30.09,WNW,302,1.0,1.0,72,0.00,,,0.00,0,Wunderground v.1.15,2013-03-30 06:54:00,
2013-03-30 02:59:00,38.4,30.2,30.09,WNW,290,1.0,1.0,72,0.00,,,0.00,0,Wunderground v.1.15,2013-03-30 06:59:00,
2013-03-30 03:05:00,38.4,30.2,30.09,NW,313,1.0,1.0,72,0.00,,,0.00,0,Wunderground v.1.15,2013-03-30 07:05:00,
2013-03-30 03:14:00,38.3,30.1,30.09,WNW,297,1.0,2.0,72,0.00,,,0.00,0,Wunderground v.1.15,2013-03-30 07:14:00,
2013-03-30 03:19:00,38.3,30.1,30.09,NW,320,1.0,1.0,72,0.00,,,0.00,0,Wunderground v.1.15,2013-03-30 07:19:00,
2013-03-30 03:29:00,38.2,30.0,30.09,WNW,298,1.0,1.0,72,0.00,,,0.00,0,Wunderground v.1.15,2013-03-30 07:29:00,
2013-03-30 03:35:00,38.1,30.2,30.09,North,355,1.0,2.0,73,0.00,,,0.00,0,Wunderground v.1.15,2013-03-30 07:35:00,
2013-03-30 03:44:00,38.1,30.2,30.09,West,269,1.0,2.0,73,0.00,,,0.00,0,Wunderground v.1.15,2013-03-30 07:44:00,
2013-03-30 03:49:00,38.1,30.2,30.09,NNE,15,1.0,1.0,73,0.00,,,0.00,0,Wunderground v.1.15,2013-03-30 07:49:00,
2013-03-30 03:54:00,38.0,30.1,30.09,North,5,0.0,2.0,73,0.00,,,0.00,0,Wunderground v.1.15,2013-03-30 07:54:00,
2013-03-30 04:04:00,38.0,30.4,30.09,WNW,300,1.0,1.0,74,0.00,,,0.00,0,Wunderground v.1.15,2013-03-30 08:04:00,
2013-03-30 04:09:00,37.9,30.4,30.09,NW,306,1.0,1.0,74,0.00,,,0.00,0,Wunderground v.1.15,2013-03-30 08:09:00,
2013-03-30 04:20:00,38.0,30.4,30.09,NW,317,1.0,2.0,74,0.00,,,0.00,0,Wunderground v.1.15,2013-03-30 08:20:00,
2013-03-30 04:29:00,38.0,30.4,30.09,WNW,290,1.0,1.0,74,0.00,,,0.00,0,Wunderground v.1.15,2013-03-30 08:29:00,
2013-03-30 04:39:00,37.9,30.4,30.09,WNW,288,1.0,2.0,74,0.00,,,0.00,0,Wunderground v.1.15,2013-03-30 08:39:00,
2013-03-30 04:44:00,37.9,30.7,30.09,NW,306,1.0,2.0,75,0.00,,,0.00,0,Wunderground v.1.15,2013-03-30 08:44:00,
2013-03-30 04:50:00,37.8,30.6,30.09,NW,313,1.0,1.0,75,0.00,,,0.00,0,Wunderground v.1.15,2013-03-30 08:50:00,
2013-03-30 04:59:00,37.6,30.4,30.09,West,265,1.0,3.0,75,0.00,,,0.00,0,Wunderground v.1.15,2013-03-30 08:59:00,
2013-03-30 05:04:00,37.6,30.4,30.09,WNW,286,1.0,3.0,75,0.00,,,0.00,0,Wunderground v.1.15,2013-03-30 09:04:00,
2013-03-30 05:14:00,37.6,30.4,30.09,WNW,285,2.0,2.0,75,0.00,,,0.00,0,Wunderground v.1.15,2013-03-30 09:14:00,
2013-03-30 05:24:00,37.4,30.2,30.09,WNW,300,1.0,2.0,75,0.00,,,0.00,0,Wunderground v.1.15,2013-03-30 09:24:00,
2013-03-30 05:29:00,37.4,30.2,30.09,NW,322,0.0,2.0,75,0.00,,,0.00,0,Wunderground v.1.15,2013-03-30 09:29:00,
2013-03-30 05:35:00,37.4,30.2,30.09,WNW,286,1.0,3.0,75,0.00,,,0.00,0,Wunderground v.1.15,2013-03-30 09:35:00,
2013-03-30 05:44:00,37.2,30.3,30.10,West,281,1.0,4.0,76,0.00,,,0.00,0,Wunderground v.1.15,2013-03-30 09:44:00,
2013-03-30 05:49:00,37.2,30.3,30.10,WNW,300,1.0,1.0,76,0.00,,,0.00,0,Wunderground v.1.15,2013-03-30 09:49:00,
2013-03-30 06:00:00,37.0,30.1,30.10,WNW,300,1.0,1.0,76,0.00,,,0.00,0,Wunderground v.1.15,2013-03-30 10:00:00,
2013-03-30 06:10:00,36.7,29.8,30.10,WNW,286,1.0,1.0,76,0.00,,,0.00,0,Wunderground v.1.15,2013-03-30 10:10:00,
2013-03-30 06:19:00,36.5,30.0,30.10,WNW,290,1.0,1.0,77,0.00,,,0.00,0,Wunderground v.1.15,2013-03-30 10:19:00,
2013-03-30 06:29:00,36.3,29.8,30.10,WNW,282,1.0,1.0,77,0.00,,,0.00,0,Wunderground v.1.15,2013-03-30 10:29:00,
2013-03-30 06:34:00,36.2,29.7,30.11,West,279,1.0,1.0,77,0.00,,,0.00,0,Wunderground v.1.15,2013-03-30 10:34:00,
2013-03-30 06:44:00,36.0,29.8,30.11,West,271,0.0,0.0,78,0.00,,,0.00,7,Wunderground v.1.15,2013-03-30 10:44:00,
2013-03-30 06:54:00,35.9,29.7,30.11,WNW,291,0.0,2.0,78,0.00,,,0.00,12,Wunderground v.1.15,2013-03-30 10:54:00,
2013-03-30 07:04:00,35.8,29.9,30.12,WNW,303,2.0,2.0,79,0.00,,,0.00,19,Wunderground v.1.15,2013-03-30 11:04:00,
2013-03-30 07:14:00,35.9,30.0,30.12,WNW,296,2.0,3.0,79,0.00,,,0.00,25,Wunderground v.1.15,2013-03-30 11:14:00,
2013-03-30 07:19:00,36.0,30.1,30.12,WNW,298,2.0,3.0,79,0.00,,,0.00,39,Wunderground v.1.15,2013-03-30 11:19:00,
2013-03-30 07:24:00,36.2,30.3,30.12,NW,323,2.0,3.0,79,0.00,,,0.00,60,Wunderground v.1.15,2013-03-30 11:24:00,
2013-03-30 07:34:00,36.7,30.8,30.13,NW,315,1.0,3.0,79,0.00,,,0.00,91,Wunderground v.1.15,2013-03-30 11:34:00,
2013-03-30 07:39:00,37.1,30.9,30.13,WNW,282,2.0,2.0,78,0.00,,,0.00,105,Wunderground v.1.15,2013-03-30 11:39:00,
2013-03-30 07:45:00,37.5,31.3,30.13,NNW,337,2.0,4.0,78,0.00,,,0.00,116,Wunderground v.1.15,2013-03-30 11:45:00,
2013-03-30 07:54:00,38.3,31.4,30.13,WNW,296,1.0,2.0,76,0.00,,,0.00,116,Wunderground v.1.15,2013-03-30 11:54:00,
2013-03-30 07:59:00,38.7,31.8,30.13,North,350,1.0,1.0,76,0.00,,,0.00,156,Wunderground v.1.15,2013-03-30 11:59:00,
2013-03-30 08:04:00,39.2,31.9,30.13,NW,304,1.0,5.0,75,0.00,,,0.00,95,Wunderground v.1.15,2013-03-30 12:04:00,
2013-03-30 08:14:00,40.0,32.4,30.13,WNW,303,2.0,3.0,74,0.00,,,0.00,44,Wunderground v.1.15,2013-03-30 12:14:00,
2013-03-30 08:24:00,40.9,32.6,30.13,NW,309,2.0,2.0,72,0.00,,,0.00,262,Wunderground v.1.15,2013-03-30 12:24:00,
2013-03-30 08:29:00,41.4,33.0,30.13,West,264,2.0,4.0,72,0.00,,,0.00,220,Wunderground v.1.15,2013-03-30 12:29:00,
2013-03-30 08:34:00,41.9,32.8,30.13,NNW,346,3.0,4.0,70,0.00,,,0.00,209,Wunderground v.1.15,2013-03-30 12:34:00,
2013-03-30 08:44:00,42.9,33.1,30.14,NW,309,3.0,3.0,68,0.00,,,0.00,137,Wunderground v.1.15,2013-03-30 12:44:00,
2013-03-30 08:49:00,43.3,33.4,30.13,NNW,344,3.0,3.0,68,0.00,,,0.00,336,Wunderground v.1.15,2013-03-30 12:49:00,
2013-03-30 08:54:00,43.6,33.0,30.14,WNW,295,2.0,4.0,66,0.00,,,0.00,366,Wunderground v.1.15,2013-03-30 12:54:00,
2013-03-30 08:59:00,43.8,33.2,30.14,WNW,290,3.0,3.0,66,0.00,,,0.00,381,Wunderground v.1.15,2013-03-30 12:59:00,
2013-03-30 09:09:00,44.6,33.6,30.14,NNW,343,3.0,3.0,65,0.00,,,0.00,380,Wunderground v.1.15,2013-03-30 13:09:00,
2013-03-30 09:14:00,45.0,33.2,30.14,NNW,341,3.0,3.0,63,0.00,,,0.00,295,Wunderground v.1.15,2013-03-30 13:14:00,
2013-03-30 09:19:00,45.1,33.2,30.14,WNW,297,3.0,4.0,63,0.00,,,0.00,403,Wunderground v.1.15,2013-03-30 13:19:00,
2013-03-30 09:24:00,45.4,33.1,30.13,WNW,288,2.0,4.0,62,0.00,,,0.00,367,Wunderground v.1.15,2013-03-30 13:24:00,
2013-03-30 09:34:00,45.8,33.5,30.14,West,271,3.0,3.0,62,0.00,,,0.00,492,Wunderground v.1.15,2013-03-30 13:34:00,
2013-03-30 09:44:00,45.8,32.7,30.13,WSW,255,4.0,4.0,60,0.00,,,0.00,218,Wunderground v.1.15,2013-03-30 13:44:00,
2013-03-30 09:49:00,45.7,32.6,30.13,NW,323,4.0,4.0,60,0.00,,,0.00,243,Wunderground v.1.15,2013-03-30 13:49:00,
2013-03-30 09:54:00,45.7,32.2,30.13,NW,309,4.0,4.0,59,0.00,,,0.00,373,Wunderground v.1.15,2013-03-30 13:54:00,
2013-03-30 09:59:00,45.8,32.7,30.13,West,278,4.0,4.0,60,0.00,,,0.00,406,Wunderground v.1.15,2013-03-30 13:59:00,
2013-03-30 10:05:00,46.0,33.3,30.13,NNW,329,4.0,5.0,61,0.00,,,0.00,469,Wunderground v.1.15,2013-03-30 14:05:00,
2013-03-30 10:14:00,46.5,33.4,30.13,NNE,32,3.0,4.0,60,0.00,,,0.00,603,Wunderground v.1.15,2013-03-30 14:14:00,
2013-03-30 10:19:00,47.0,33.0,30.14,NNW,331,3.0,3.0,58,0.00,,,0.00,566,Wunderground v.1.15,2013-03-30 14:19:00,
2013-03-30 10:29:00,47.4,33.8,30.14,NW,311,3.0,4.0,59,0.00,,,0.00,506,Wunderground v.1.15,2013-03-30 14:29:00,
2013-03-30 10:40:00,48.1,33.1,30.13,North,360,3.0,3.0,56,0.00,,,0.00,666,Wunderground v.1.15,2013-03-30 14:40:00,
2013-03-30 10:45:00,48.6,33.6,30.13,WNW,282,3.0,3.0,56,0.00,,,0.00,679,Wunderground v.1.15,2013-03-30 14:45:00,
2013-03-30 10:54:00,49.3,32.4,30.13,East,94,2.0,3.0,52,0.00,,,0.00,649,Wunderground v.1.15,2013-03-30 14:54:00,
2013-03-30 11:04:00,49.9,33.0,30.13,NNE,13,3.0,6.0,52,0.00,,,0.00,721,Wunderground v.1.15,2013-03-30 15:04:00,
2013-03-30 11:14:00,50.5,33.0,30.13,West,280,3.0,5.0,51,0.00,,,0.00,737,Wunderground v.1.15,2013-03-30 15:14:00,
2013-03-30 11:19:00,50.5,33.0,30.13,NW,310,3.0,3.0,51,0.00,,,0.00,745,Wunderground v.1.15,2013-03-30 15:19:00,
2013-03-30 11:24:00,50.9,31.4,30.13,NNW,329,3.0,3.0,47,0.00,,,0.00,759,Wunderground v.1.15,2013-03-30 15:24:00,
2013-03-30 11:29:00,51.1,29.9,30.13,NNE,15,3.0,3.0,44,0.00,,,0.00,765,Wunderground v.1.15,2013-03-30 15:29:00,
2013-03-30 11:40:00,52.0,29.0,30.13,WNW,293,3.0,4.0,41,0.00,,,0.00,780,Wunderground v.1.15,2013-03-30 15:40:00,
2013-03-30 11:49:00,52.3,30.4,30.12,NNE,17,3.0,4.0,43,0.00,,,0.00,789,Wunderground v.1.15,2013-03-30 15:49:00,
2013-03-30 11:54:00,52.7,29.6,30.12,NW,320,3.0,4.0,41,0.00,,,0.00,800,Wunderground v.1.15,2013-03-30 15:54:00,
2013-03-30 12:04:00,52.7,27.8,30.12,WNW,296,3.0,5.0,38,0.00,,,0.00,810,Wunderground v.1.15,2013-03-30 16:04:00,
2013-03-30 12:14:00,53.3,27.7,30.12,WNW,286,3.0,3.0,37,0.00,,,0.00,821,Wunderground v.1.15,2013-03-30 16:14:00,
2013-03-30 12:19:00,53.4,27.1,30.11,NW,306,3.0,3.0,36,0.00,,,0.00,826,Wunderground v.1.15,2013-03-30 16:19:00,
2013-03-30 12:29:00,54.2,27.8,30.11,North,11,2.0,2.0,36,0.00,,,0.00,833,Wunderground v.1.15,2013-03-30 16:29:00,
2013-03-30 12:34:00,54.5,27.4,30.11,WNW,294,3.0,3.0,35,0.00,,,0.00,833,Wunderground v.1.15,2013-03-30 16:34:00,
2013-03-30 12:39:00,54.4,26.6,30.11,NNW,344,3.0,6.0,34,0.00,,,0.00,837,Wunderground v.1.15,2013-03-30 16:39:00,
2013-03-30 12:44:00,54.1,26.3,30.11,West,275,3.0,6.0,34,0.00,,,0.00,837,Wunderground v.1.15,2013-03-30 16:44:00,
2013-03-30 12:50:00,54.5,27.4,30.11,NW,321,3.0,5.0,35,0.00,,,0.00,838,Wunderground v.1.15,2013-03-30 16:50:00,
2013-03-30 12:59:00,54.7,28.2,30.10,NW,323,3.0,6.0,36,0.00,,,0.00,840,Wunderground v.1.15,2013-03-30 16:59:00,
2013-03-30 13:04:00,54.8,27.6,30.10,NNE,21,3.0,6.0,35,0.00,,,0.00,837,Wunderground v.1.15,2013-03-30 17:04:00,
2013-03-30 13:14:00,55.4,29.5,30.10,NW,319,2.0,3.0,37,0.00,,,0.00,837,Wunderground v.1.15,2013-03-30 17:14:00,
2013-03-30 13:19:00,55.5,27.6,30.10,NW,321,3.0,6.0,34,0.00,,,0.00,849,Wunderground v.1.15,2013-03-30 17:19:00,
2013-03-30 13:29:00,55.6,27.6,30.10,NNW,328,3.0,3.0,34,0.00,,,0.00,833,Wunderground v.1.15,2013-03-30 17:29:00,
2013-03-30 13:35:00,55.4,25.2,30.10,NW,317,3.0,7.0,31,0.00,,,0.00,847,Wunderground v.1.15,2013-03-30 17:35:00,
2013-03-30 13:44:00,55.3,26.7,30.09,WNW,290,4.0,4.0,33,0.00,,,0.00,833,Wunderground v.1.15,2013-03-30 17:44:00,
2013-03-30 13:54:00,55.7,25.5,30.08,SSE,160,2.0,4.0,31,0.00,,,0.00,842,Wunderground v.1.15,2013-03-30 17:54:00,
2013-03-30 13:59:00,56.2,28.2,30.08,NW,316,2.0,3.0,34,0.00,,,0.00,817,Wunderground v.1.15,2013-03-30 17:59:00,
2013-03-30 14:09:00,56.5,25.4,30.08,North,5,4.0,4.0,30,0.00,,,0.00,856,Wunderground v.1.15,2013-03-30 18:09:00,
2013-03-30 14:19:00,55.3,25.1,30.08,West,276,4.0,4.0,31,0.00,,,0.00,155,Wunderground v.1.15,2013-03-30 18:19:00,
2013-03-30 14:24:00,54.9,24.8,30.07,East,82,3.0,5.0,31,0.00,,,0.00,100,Wunderground v.1.15,2013-03-30 18:24:00,
2013-03-30 14:34:00,55.9,26.4,30.07,WSW,255,2.0,2.0,32,0.00,,,0.00,796,Wunderground v.1.15,2013-03-30 18:34:00,
2013-03-30 14:44:00,56.9,24.9,30.07,North,355,3.0,3.0,29,0.00,,,0.00,782,Wunderground v.1.15,2013-03-30 18:44:00,
2013-03-30 14:49:00,57.1,25.9,30.07,WNW,287,3.0,4.0,30,0.00,,,0.00,773,Wunderground v.1.15,2013-03-30 18:49:00,
2013-03-30 14:59:00,57.7,25.6,30.07,West,260,3.0,4.0,29,0.00,,,0.00,735,Wunderground v.1.15,2013-03-30 18:59:00,
2013-03-30 15:04:00,57.9,24.1,30.07,NW,306,3.0,4.0,27,0.00,,,0.00,735,Wunderground v.1.15,2013-03-30 19:04:00,
2013-03-30 15:09:00,57.9,24.1,30.07,NNW,340,3.0,5.0,27,0.00,,,0.00,731,Wunderground v.1.15,2013-03-30 19:09:00,
2013-03-30 15:19:00,56.6,23.0,30.07,SE,145,4.0,4.0,27,0.00,,,0.00,694,Wunderground v.1.15,2013-03-30 19:19:00,
2013-03-30 15:29:00,57.2,23.5,30.07,West,275,3.0,3.0,27,0.00,,,0.00,670,Wunderground v.1.15,2013-03-30 19:29:00,
2013-03-30 15:34:00,57.1,24.3,30.07,NNW,333,3.0,3.0,28,0.00,,,0.00,668,Wunderground v.1.15,2013-03-30 19:34:00,
2013-03-30 15:44:00,57.8,23.1,30.07,WNW,284,2.0,3.0,26,0.00,,,0.00,624,Wunderground v.1.15,2013-03-30 19:44:00,
2013-03-30 15:54:00,58.3,32.1,30.06,SW,228,1.0,2.0,37,0.00,,,0.00,603,Wunderground v.1.15,2013-03-30 19:54:00,
2013-03-30 15:59:00,57.9,29.7,30.06,WNW,287,2.0,6.0,34,0.00,,,0.00,585,Wunderground v.1.15,2013-03-30 19:59:00,
2013-03-30 16:04:00,58.0,25.0,30.06,West,273,2.0,6.0,28,0.00,,,0.00,571,Wunderground v.1.15,2013-03-30 20:04:00,
2013-03-30 16:14:00,56.6,33.8,30.06,West,265,2.0,3.0,42,0.00,,,0.00,548,Wunderground v.1.15,2013-03-30 20:14:00,
2013-03-30 16:19:00,55.9,35.4,30.06,SSW,209,3.0,3.0,46,0.00,,,0.00,531,Wunderground v.1.15,2013-03-30 20:19:00,
2013-03-30 16:30:00,55.6,36.2,30.06,SW,223,2.0,2.0,48,0.00,,,0.00,487,Wunderground v.1.15,2013-03-30 20:30:00,
2013-03-30 16:39:00,55.9,34.3,30.06,SSW,205,1.0,1.0,44,0.00,,,0.00,436,Wunderground v.1.15,2013-03-30 20:39:00,
2013-03-30 16:49:00,55.5,36.6,30.06,SE,134,2.0,3.0,49,0.00,,,0.00,294,Wunderground v.1.15,2013-03-30 20:49:00,
2013-03-30 16:54:00,55.3,34.9,30.06,SSW,202,1.0,3.0,46,0.00,,,0.00,315,Wunderground v.1.15,2013-03-30 20:54:00,
2013-03-30 17:04:00,54.9,35.6,30.06,SW,230,1.0,3.0,48,0.00,,,0.00,206,Wunderground v.1.15,2013-03-30 21:04:00,
2013-03-30 17:09:00,54.7,35.9,30.06,SSW,200,1.0,1.0,49,0.00,,,0.00,278,Wunderground v.1.15,2013-03-30 21:09:00,
2013-03-30 17:14:00,54.4,33.5,30.06,West,268,1.0,3.0,45,0.00,,,0.00,121,Wunderground v.1.15,2013-03-30 21:14:00,
2013-03-30 17:24:00,53.5,33.2,30.06,WNW,290,1.0,3.0,46,0.00,,,0.00,91,Wunderground v.1.15,2013-03-30 21:24:00,
2013-03-30 17:34:00,53.2,34.5,30.06,South,176,1.0,2.0,49,0.00,,,0.00,250,Wunderground v.1.15,2013-03-30 21:34:00,
2013-03-30 17:44:00,53.1,33.4,30.06,SSW,200,1.0,2.0,47,0.00,,,0.00,79,Wunderground v.1.15,2013-03-30 21:44:00,
2013-03-30 17:49:00,53.0,33.3,30.07,South,182,1.0,2.0,47,0.00,,,0.00,105,Wunderground v.1.15,2013-03-30 21:49:00,
2013-03-30 17:54:00,53.0,33.3,30.07,West,265,1.0,2.0,47,0.00,,,0.00,130,Wunderground v.1.15,2013-03-30 21:54:00,
2013-03-30 18:04:00,52.7,33.5,30.07,SSW,200,1.0,4.0,48,0.00,,,0.00,144,Wunderground v.1.15,2013-03-30 22:04:00,
2013-03-30 18:09:00,52.6,34.0,30.07,SSW,193,1.0,1.0,49,0.00,,,0.00,116,Wunderground v.1.15,2013-03-30 22:09:00,
2013-03-30 18:19:00,52.3,35.7,30.07,WSW,248,1.0,1.0,53,0.00,,,0.00,65,Wunderground v.1.15,2013-03-30 22:19:00,
2013-03-30 18:24:00,51.9,36.7,30.07,WSW,253,1.0,2.0,56,0.00,,,0.00,70,Wunderground v.1.15,2013-03-30 22:24:00,
2013-03-30 18:34:00,51.1,35.5,30.07,South,188,0.0,1.0,55,0.00,,,0.00,30,Wunderground v.1.15,2013-03-30 22:34:00,
2013-03-30 18:39:00,50.5,35.4,30.07,SSW,198,0.0,0.0,56,0.00,,,0.00,25,Wunderground v.1.15,2013-03-30 22:39:00,
2013-03-30 18:49:00,49.0,34.9,30.08,West,273,1.0,1.0,58,0.00,,,0.00,19,Wunderground v.1.15,2013-03-30 22:49:00,
2013-03-30 18:55:00,48.2,34.1,30.08,WSW,257,1.0,3.0,58,0.00,,,0.00,14,Wunderground v.1.15,2013-03-30 22:55:00,
2013-03-30 19:05:00,47.2,34.4,30.08,West,269,1.0,3.0,61,0.00,,,0.00,9,Wunderground v.1.15,2013-03-30 23:05:00,
2013-03-30 19:14:00,46.6,34.3,30.09,SW,227,2.0,2.0,62,0.00,,,0.00,0,Wunderground v.1.15,2013-03-30 23:14:00,
2013-03-30 19:19:00,46.3,34.0,30.09,West,259,2.0,2.0,62,0.00,,,0.00,0,Wunderground v.1.15,2013-03-30 23:19:00,
2013-03-30 19:29:00,45.8,34.3,30.09,WSW,252,2.0,2.0,64,0.00,,,0.00,0,Wunderground v.1.15,2013-03-30 23:29:00,
2013-03-30 19:40:00,45.4,34.3,30.09,West,277,2.0,3.0,65,0.00,,,0.00,0,Wunderground v.1.15,2013-03-30 23:40:00,
2013-03-30 19:49:00,45.2,34.1,30.09,WNW,283,2.0,3.0,65,0.00,,,0.00,0,Wunderground v.1.15,2013-03-30 23:49:00,
2013-03-30 19:59:00,45.1,34.4,30.10,WSW,257,1.0,3.0,66,0.00,,,0.00,0,Wunderground v.1.15,2013-03-30 23:59:00,
2013-03-30 20:04:00,45.0,34.7,30.10,WSW,256,1.0,3.0,67,0.00,,,0.00,0,Wunderground v.1.15,2013-03-31 00:04:00,
2013-03-30 20:14:00,44.9,34.6,30.10,WSW,237,2.0,2.0,67,0.00,,,0.00,0,Wunderground v.1.15,2013-03-31 00:14:00,
2013-03-30 20:24:00,44.9,35.0,30.10,West,266,1.0,3.0,68,0.00,,,0.00,0,Wunderground v.1.15,2013-03-31 00:24:00,
2013-03-30 20:29:00,44.8,34.9,30.10,SSW,208,1.0,1.0,68,0.00,,,0.00,0,Wunderground v.1.15,2013-03-31 00:29:00,
2013-03-30 20:34:00,44.7,35.1,30.10,West,261,1.0,4.0,69,0.00,,,0.00,0,Wunderground v.1.15,2013-03-31 00:34:00,
2013-03-30 20:39:00,44.6,35.1,30.10,West,265,1.0,1.0,69,0.00,,,0.00,0,Wunderground v.1.15,2013-03-31 00:39:00,
2013-03-30 20:49:00,44.5,35.0,30.10,NW,308,1.0,2.0,69,0.00,,,0.00,0,Wunderground v.1.15,2013-03-31 00:49:00,
2013-03-30 20:54:00,44.5,35.0,30.11,NNE,21,1.0,2.0,69,0.00,,,0.00,0,Wunderground v.1.15,2013-03-31 00:54:00,
2013-03-30 20:59:00,44.4,35.2,30.11,SW,222,1.0,1.0,70,0.00,,,0.00,0,Wunderground v.1.15,2013-03-31 00:59:00,
2013-03-30 21:09:00,44.3,35.1,30.11,West,265,1.0,1.0,70,0.00,,,0.00,0,Wunderground v.1.15,2013-03-31 01:09:00,
2013-03-30 21:19:00,44.3,35.5,30.11,West,272,1.0,1.0,71,0.00,,,0.00,0,Wunderground v.1.15,2013-03-31 01:19:00,
2013-03-30 21:24:00,44.2,35.4,30.11,SW,222,0.0,1.0,71,0.00,,,0.00,0,Wunderground v.1.15,2013-03-31 01:24:00,
2013-03-30 21:34:00,44.0,35.6,30.12,SE,145,0.0,2.0,72,0.00,,,0.00,0,Wunderground v.1.15,2013-03-31 01:34:00,
2013-03-30 21:40:00,43.9,35.5,30.12,South,191,0.0,0.0,72,0.00,,,0.00,0,Wunderground v.1.15,2013-03-31 01:40:00,
2013-03-30 21:49:00,43.7,35.3,30.12,South,190,0.0,0.0,72,0.00,,,0.00,0,Wunderground v.1.15,2013-03-31 01:49:00,
2013-03-30 21:51:00,43.7,35.3,30.12,N/A,-737280,0.0,-999.0,72,0.00,,,0.00,0,Wunderground v.1.15,2013-03-31 01:51:00,
2013-03-30 21:56:00,43.6,35.2,30.12,South,180,0.0,-999.0,72,0.00,,,0.00,0,Wunderground v.1.15,2013-03-31 01:56:00,
2013-03-30 21:59:00,43.6,35.2,30.12,South,184,0.0,0.0,72,0.00,,,0.00,0,Wunderground v.1.15,2013-03-31 01:59:00,
2013-03-30 22:01:00,43.5,35.4,30.12,South,180,0.0,-999.0,73,0.00,,,0.00,0,Wunderground v.1.15,2013-03-31 02:01:00,
2013-03-30 22:04:00,43.5,35.4,30.12,SSE,166,0.0,0.0,73,0.00,,,0.00,0,Wunderground v.1.15,2013-03-31 02:04:00,
2013-03-30 22:06:00,43.5,35.4,30.12,N/A,-737280,0.0,-999.0,73,0.00,,,0.00,0,Wunderground v.1.15,2013-03-31 02:06:00,
2013-03-30 22:09:00,43.5,35.4,30.12,South,183,0.0,0.0,73,0.00,,,0.00,0,Wunderground v.1.15,2013-03-31 02:09:00,
2013-03-30 22:11:00,43.4,35.3,30.12,SSE,158,1.0,-999.0,73,0.00,,,0.00,0,Wunderground v.1.15,2013-03-31 02:11:00,
2013-03-30 22:15:00,43.4,35.3,30.12,South,173,0.0,0.0,73,0.00,,,0.00,0,Wunderground v.1.15,2013-03-31 02:15:00,
2013-03-30 22:16:00,43.4,35.7,30.12,N/A,-737280,0.0,-999.0,74,0.00,,,0.00,0,Wunderground v.1.15,2013-03-31 02:16:00,
2013-03-30 22:21:00,43.4,35.7,30.12,SSE,158,1.0,-999.0,74,0.00,,,0.00,0,Wunderground v.1.15,2013-03-31 02:21:00,
2013-03-30 22:24:00,43.3,35.6,30.12,SSW,210,0.0,1.0,74,0.00,,,0.00,0,Wunderground v.1.15,2013-03-31 02:24:00,
2013-03-30 22:26:00,43.3,35.6,30.12,N/A,-737280,0.0,-999.0,74,0.00,,,0.00,0,Wunderground v.1.15,2013-03-31 02:26:00,
2013-03-30 22:31:00,43.3,35.6,30.12,N/A,-737280,0.0,-999.0,74,0.00,,,0.00,0,Wunderground v.1.15,2013-03-31 02:31:00,
2013-03-30 22:36:00,43.2,35.5,30.12,West,270,0.0,-999.0,74,0.00,,,0.00,0,Wunderground v.1.15,2013-03-31 02:36:00,
2013-03-30 22:41:00,43.2,35.5,30.12,N/A,-737280,0.0,-999.0,74,0.00,,,0.00,0,Wunderground v.1.15,2013-03-31 02:41:00,
2013-03-30 22:50:00,43.0,35.6,30.12,South,176,0.0,0.0,75,0.00,,,0.00,0,Wunderground v.1.15,2013-03-31 02:50:00,
2013-03-30 23:00:00,42.8,36.1,30.12,South,190,0.0,0.0,77,0.00,,,0.00,0,Wunderground v.1.15,2013-03-31 03:00:00,
2013-03-30 23:10:00,42.6,35.9,30.12,SSW,198,0.0,0.0,77,0.00,,,0.00,0,Wunderground v.1.15,2013-03-31 03:10:00,
2013-03-30 23:15:00,42.5,36.4,30.12,South,174,1.0,1.0,79,0.00,,,0.00,0,Wunderground v.1.15,2013-03-31 03:15:00,
2013-03-30 23:25:00,42.2,36.5,30.12,SSW,213,0.0,1.0,80,0.00,,,0.00,0,Wunderground v.1.15,2013-03-31 03:25:00,
2013-03-30 23:35:00,42.0,36.3,30.12,South,177,0.0,0.0,80,0.00,,,0.00,0,Wunderground v.1.15,2013-03-31 03:35:00,
2013-03-30 23:45:00,41.9,36.5,30.13,South,177,0.0,0.0,81,0.00,,,0.00,0,Wunderground v.1.15,2013-03-31 03:45:00,
2013-03-30 23:55:00,41.6,36.5,30.13,South,177,0.0,0.0,82,0.00,,,0.00,0,Wunderground v.1.15,2013-03-31 03:55:00,